When you browse on this site, cookies collect data to enhance your experience and personalize the content and advertising you see.
Visit our Privacy Policy to learn more. By continuing to use the site, you agree to this use of cookies and data.
  • In Austria
  • List of Countries
  • For 7 days
  • Water Temperature
  • Satellite Maps
  • Weather Map
  • News
  • Weather Widgets
  • user-avatar
    Login

    Hourly Weather Troy

    Today, 18 June, Tuesday

    Time Temperature Precipitation Wind Pressure Humidity
    00:00 +16°C° 0 mm 1 mps 740 mmHg 83%
    01:00 +16°C° 0 mm 1 mps 740 mmHg 83%
    02:00 +15°C° 0 mm 1 mps 740 mmHg 83%
    03:00 +15°C° 0 mm 1 mps 740 mmHg 83%
    04:00 +16°C° 0 mm 1 mps 740 mmHg 81%
    05:00 +16°C° 0 mm 1 mps 741 mmHg 79%
    06:00 +18°C° 0 mm 1 mps 741 mmHg 77%
    07:00 +20°C° 0 mm 1 mps 741 mmHg 73%
    08:00 +22°C° 0 mm 1 mps 741 mmHg 68%
    09:00 +23°C° 0 mm 1 mps 741 mmHg 63%
    10:00 +25°C° 0 mm 1 mps 740 mmHg 59%
    11:00 +26°C° 0 mm 1 mps 740 mmHg 55%
    12:00 +28°C° 0 mm 1 mps 740 mmHg 50%
    13:00 +27°C° 0 mm 1 mps 740 mmHg 51%
    14:00 +27°C° 0 mm 1 mps 739 mmHg 53%
    15:00 +27°C° 0 mm 1 mps 738 mmHg 54%
    16:00 +26°C° 0 mm 1 mps 738 mmHg 57%
    17:00 +26°C° 0 mm 1 mps 738 mmHg 61%
    18:00 +25°C° 0 mm 1 mps 738 mmHg 65%
    19:00 +24°C° 0 mm 1 mps 738 mmHg 69%
    20:00 +22°C° 0 mm 1 mps 738 mmHg 74%
    21:00 +21°C° 0 mm 1 mps 738 mmHg 78%
    22:00 +20°C° 0 mm 1 mps 738 mmHg 80%
    23:00 +20°C° 0 mm 1 mps 737 mmHg 81%

    Tomorrow, 19 June, Wednesday

    Time Temperature Precipitation Wind Pressure Humidity
    00:00 +19°C° 0 mm 1 mps 737 mmHg 83%
    01:00 +19°C° 0 mm 1 mps 737 mmHg 84%
    02:00 +19°C° 0 mm 1 mps 737 mmHg 85%
    03:00 +18°C° 0 mm 1 mps 736 mmHg 86%
    04:00 +19°C° 0 mm 1 mps 736 mmHg 84%
    05:00 +20°C° 0 mm 1 mps 736 mmHg 83%
    06:00 +20°C° 0 mm 1 mps 736 mmHg 81%
    07:00 +22°C° 0 mm 1 mps 736 mmHg 74%
    08:00 +24°C° 0 mm 1 mps 737 mmHg 68%
    09:00 +26°C° 0 mm 1 mps 737 mmHg 61%
    10:00 +26°C° 0.3 mm 1 mps 736 mmHg 61%
    11:00 +27°C° 0.3 mm 1 mps 736 mmHg 60%
    12:00 +27°C° 0.3 mm 2 mps 736 mmHg 59%
    13:00 +26°C° 0.6 mm 2 mps 736 mmHg 61%
    14:00 +26°C° 0.6 mm 3 mps 735 mmHg 64%
    15:00 +25°C° 0.6 mm 3 mps 735 mmHg 67%
    16:00 +24°C° 0.3 mm 3 mps 735 mmHg 68%
    17:00 +22°C° 0.3 mm 3 mps 735 mmHg 70%
    18:00 +21°C° 0.3 mm 3 mps 734 mmHg 72%
    19:00 +20°C° 0 mm 3 mps 734 mmHg 73%
    20:00 +20°C° 0 mm 3 mps 734 mmHg 74%
    21:00 +19°C° 0 mm 3 mps 734 mmHg 76%
    22:00 +18°C° 0 mm 2 mps 734 mmHg 77%
    23:00 +18°C° 0 mm 2 mps 734 mmHg 77%

    Day after tomorrow, 20 June, Thursday

    Time Temperature Precipitation Wind Pressure Humidity
    00:00 +18°C° 0 mm 2 mps 733 mmHg 78%
    01:00 +17°C° 0 mm 3 mps 733 mmHg 80%
    02:00 +17°C° 0 mm 3 mps 733 mmHg 81%
    03:00 +17°C° 0 mm 3 mps 733 mmHg 82%
    04:00 +17°C° 0.1 mm 3 mps 733 mmHg 84%
    05:00 +17°C° 0.1 mm 3 mps 733 mmHg 85%
    06:00 +16°C° 0.1 mm 3 mps 733 mmHg 87%
    07:00 +17°C° 0.1 mm 3 mps 733 mmHg 85%
    08:00 +17°C° 0.1 mm 3 mps 732 mmHg 84%
    09:00 +17°C° 0.1 mm 4 mps 732 mmHg 82%
    10:00 +17°C° 0.5 mm 4 mps 732 mmHg 83%
    11:00 +17°C° 0.5 mm 4 mps 732 mmHg 83%
    12:00 +17°C° 0.5 mm 4 mps 732 mmHg 84%
    13:00 +17°C° 0.3 mm 4 mps 732 mmHg 85%
    14:00 +17°C° 0.3 mm 4 mps 732 mmHg 85%
    15:00 +17°C° 0.3 mm 4 mps 732 mmHg 86%
    16:00 +17°C° 0.2 mm 4 mps 733 mmHg 85%
    17:00 +18°C° 0.2 mm 4 mps 733 mmHg 85%
    18:00 +18°C° 0.2 mm 4 mps 734 mmHg 84%
    19:00 +17°C° 0 mm 4 mps 735 mmHg 80%
    20:00 +15°C° 0 mm 4 mps 735 mmHg 75%
    21:00 +15°C° 0 mm 4 mps 736 mmHg 70%
    22:00 +14°C° 0 mm 4 mps 736 mmHg 69%
    23:00 +14°C° 0 mm 4 mps 737 mmHg 67%

    21 June, Friday

    Time Temperature Precipitation Wind Pressure Humidity
    00:00 +13°C° 0 mm 4 mps 737 mmHg 66%
    01:00 +13°C° 0 mm 4 mps 737 mmHg 68%
    02:00 +13°C° 0 mm 4 mps 738 mmHg 70%
    03:00 +13°C° 0 mm 4 mps 738 mmHg 72%
    04:00 +13°C° 0 mm 4 mps 739 mmHg 71%
    05:00 +14°C° 0 mm 3 mps 740 mmHg 70%
    06:00 +16°C° 0 mm 3 mps 740 mmHg 69%
    07:00 +18°C° 0 mm 3 mps 741 mmHg 63%
    08:00 +20°C° 0 mm 2 mps 741 mmHg 56%
    09:00 +23°C° 0 mm 2 mps 742 mmHg 50%
    10:00 +24°C° 0 mm 2 mps 742 mmHg 47%
    11:00 +25°C° 0 mm 2 mps 742 mmHg 45%
    12:00 +27°C° 0 mm 3 mps 742 mmHg 42%
    13:00 +27°C° 0 mm 2 mps 742 mmHg 43%
    14:00 +26°C° 0 mm 2 mps 742 mmHg 44%
    15:00 +26°C° 0 mm 2 mps 742 mmHg 44%
    16:00 +26°C° 0 mm 2 mps 742 mmHg 49%
    17:00 +25°C° 0 mm 2 mps 742 mmHg 53%
    18:00 +24°C° 0 mm 2 mps 743 mmHg 58%
    19:00 +23°C° 0 mm 2 mps 743 mmHg 61%
    20:00 +21°C° 0 mm 2 mps 743 mmHg 64%
    21:00 +21°C° 0 mm 1 mps 743 mmHg 66%
    22:00 +19°C° 0 mm 2 mps 743 mmHg 68%
    23:00 +18°C° 0 mm 2 mps 743 mmHg 70%

    22 June, Saturday

    Time Temperature Precipitation Wind Pressure Humidity
    00:00 +18°C° 0 mm 2 mps 743 mmHg 71%
    01:00 +18°C° 0 mm 1 mps 743 mmHg 73%
    02:00 +18°C° 0 mm 1 mps 743 mmHg 76%
    03:00 +18°C° 0 mm 1 mps 743 mmHg 78%
    04:00 +17°C° 0 mm 2 mps 743 mmHg 76%
    05:00 +18°C° 0 mm 2 mps 744 mmHg 74%
    06:00 +18°C° 0 mm 2 mps 744 mmHg 72%
    07:00 +20°C° 0 mm 3 mps 744 mmHg 66%
    08:00 +21°C° 0 mm 3 mps 744 mmHg 61%
    09:00 +22°C° 0 mm 3 mps 744 mmHg 56%
    10:00 +24°C° 0 mm 3 mps 744 mmHg 54%
    11:00 +25°C° 0 mm 4 mps 744 mmHg 51%
    12:00 +26°C° 0 mm 4 mps 744 mmHg 49%
    13:00 +26°C° 0 mm 4 mps 744 mmHg 48%
    14:00 +26°C° 0 mm 4 mps 743 mmHg 48%
    15:00 +26°C° 0 mm 4 mps 743 mmHg 47%
    16:00 +25°C° 0 mm 4 mps 743 mmHg 49%
    17:00 +23°C° 0 mm 4 mps 742 mmHg 51%
    18:00 +22°C° 0 mm 3 mps 742 mmHg 53%
    19:00 +21°C° 0 mm 3 mps 742 mmHg 52%
    20:00 +20°C° 0 mm 3 mps 743 mmHg 52%
    21:00 +19°C° 0 mm 3 mps 743 mmHg 51%
    22:00 +19°C° 0 mm 3 mps 742 mmHg 51%
    23:00 +19°C° 0 mm 3 mps 742 mmHg 52%

    23 June, Sunday

    Time Temperature Precipitation Wind Pressure Humidity
    00:00 +18°C° 0 mm 3 mps 742 mmHg 52%
    01:00 +18°C° 0 mm 3 mps 741 mmHg 57%
    02:00 +18°C° 0 mm 3 mps 741 mmHg 63%
    03:00 +18°C° 0 mm 3 mps 741 mmHg 68%
    04:00 +18°C° 0 mm 3 mps 741 mmHg 70%
    05:00 +19°C° 0 mm 3 mps 741 mmHg 71%
    06:00 +20°C° 0 mm 4 mps 741 mmHg 72%
    07:00 +21°C° 0 mm 4 mps 741 mmHg 68%
    08:00 +23°C° 0 mm 4 mps 741 mmHg 64%
    09:00 +25°C° 0 mm 4 mps 741 mmHg 60%
    10:00 +27°C° 0.2 mm 4 mps 740 mmHg 59%
    11:00 +28°C° 0.2 mm 5 mps 740 mmHg 59%
    12:00 +29°C° 0.2 mm 5 mps 739 mmHg 58%
    13:00 +30°C° 0.1 mm 5 mps 739 mmHg 59%
    14:00 +30°C° 0.1 mm 5 mps 738 mmHg 60%
    15:00 +30°C° 0.1 mm 4 mps 737 mmHg 61%
    16:00 +30°C° 0.2 mm 4 mps 737 mmHg 65%
    17:00 +29°C° 0.2 mm 4 mps 736 mmHg 69%
    18:00 +28°C° 0.2 mm 4 mps 736 mmHg 74%
    19:00 +27°C° 3.3 mm 3 mps 736 mmHg 78%
    20:00 +26°C° 3.3 mm 2 mps 736 mmHg 82%
    21:00 +25°C° 3.3 mm 1 mps 736 mmHg 85%
    22:00 +24°C° 0 mm 2 mps 735 mmHg 86%
    23:00 +24°C° 0 mm 3 mps 735 mmHg 87%
    Show more